Regional Weather Roundup
Issued by NWS Mt. Holly, NJ

Home | Current Version | Previous Version | Text Only | Print | Product List | Glossary On
Versions: 1 2 3 4 5 6 7 8 9 10 11 12 13 14 15 16 17 18 19 20 21 22 23 24 25 26 27 28 29 30 31 32 33 34 35 36 37 38 39 40 41 42 43 44 45 46 47 48
000
ASUS41 KPHI 301012
RWRPHI

REGIONAL WEATHER ROUNDUP
NATIONAL WEATHER SERVICE MOUNT HOLLY NJ
600 AM EDT MON MAR 30 2015

NOTE:  "FAIR" INDICATES FEW OR NO CLOUDS BELOW 12,000 FEET WITH NO
SIGNIFICANT WEATHER AND/OR OBSTRUCTIONS TO VISIBILITY.

 * = STATION DOES NOT REPORT PRECIPITATION (E.G. RAIN, SNOW, ETC.)
        OR FOG.

NJZ015>026-301100-
SOUTHERN NEW JERSEY

CITY           SKY/WX    TMP DP  RH WIND       PRES   REMARKS
POMONA         CLOUDY    35  32  88 S9        30.00F WCI  28
RIO GRANDE*    CLOUDY    39  30  70 S12       30.02F WCI  32
MILLVILLE      CLOUDY    36  31  82 S7        29.99F WCI  30
WRIGHTSTOWN    MOCLDY    32  30  92 S6        29.95F WCI  27
MOUNT HOLLY    CLOUDY    33  30  88 VRB3      29.99R
TRENTON        CLOUDY    33  27  78 S12       29.95F WCI  24

$$
NJZ001>014-301100-
NORTHERN NEW JERSEY

CITY           SKY/WX    TMP DP  RH WIND       PRES   REMARKS
SUSSEX         LGT SNOW  31  28  89 CALM      29.89F FOG
ANDOVER*         N/A     30  28  92 S3        29.91F
MORRISTOWN     CLOUDY    37  18  44 S5        29.96F WCI  34
NEWARK         CLOUDY    38  18  44 S14       29.98F WCI  30
TETERBORO      CLOUDY    37  16  42 SW12G20   29.96F WCI  29
CALDWELL       CLOUDY    36  16  44 SW9       29.97F WCI  29
SOMERVILLE     CLOUDY    37  20  50 SE5       29.92F WCI  33
ALLAIRE*       CLOUDY    37  18  44 SW13G23   30.00S WCI  29
TOMS RIVER*    CLOUDY    36  27  69 S8G20     29.99F WCI  29

$$
PAZ043-044-047-054-055-060>062-066>071-301100-
EASTERN PENNSYLVANIA

CITY           SKY/WX    TMP DP  RH WIND       PRES   REMARKS
PHILADELPHIA   CLOUDY    35  31  85 S10       29.99F WCI  27
NORTH PHILA    CLOUDY    35  29  78 S6        29.99S WCI  30
BLUE BELL      CLOUDY    36  30  80 S6        29.95R WCI  31
DOYLESTOWN     CLOUDY    32  27  81 VRB5      29.93F WCI  27
QUAKERTOWN*    CLOUDY    36  25  64 SW6       29.92F WCI  31
POTTSTOWN      CLOUDY    36  23  59 VRB7      29.94F WCI  30
LANCASTER      CLOUDY    37  25  61 S7        29.91F WCI  32
COATESVILLE    CLOUDY    36  27  69 S6G17     29.93F WCI  31
READING        CLOUDY    35  28  75 CALM      29.91F
ALLENTOWN      CLOUDY    34  29  82 CALM      29.92F
MOUNT POCONO   CLOUDY    29  24  82 SW9       29.81F WCI  20
HAZLETON       CLOUDY    32  27  80 CALM      29.85F
WILKES BARRE   CLOUDY    35  25  66 S12G21    29.83F WCI  27

$$
DEZALL-MDZ008-012-015-019-020-301100-
DELAWARE AND EASTERN MARYLAND

CITY           SKY/WX    TMP DP  RH WIND       PRES   REMARKS
WILMINGTON     CLOUDY    37  29  72 S12       29.98F WCI  29
DOVER          CLOUDY    38  27  65 S10       29.99F WCI  31
GEORGETOWN     CLOUDY    39  25  57 S10       30.02F WCI  32
EASTON         LGT RAIN  40  32  74 W14G29    30.06R WCI  32
ABERDEEN       LGT RAIN  39  30  70 S17G29    29.95  WCI  30
PATUXENT       CLOUDY    43  18  36 SW9       30.01F
OCEAN CITY     CLOUDY    41  31  67 SW15      30.05F
WALLOPS ISLAND MOCLDY    41  31  67 SW13      30.06F
CAMBRIDGE      MOCLDY    43  25  49 S5        30.01F
SALISBURY      CLOUDY    41  23  48 S13       30.03F

$$
PAZ001-021-NYZ056-072-MDZ011-DCZ001-301100-
OTHER NEARBY LOCATIONS

CITY           SKY/WX    TMP DP  RH WIND       PRES   REMARKS
HARRISBURG     CLOUDY    38  26  62 S7        29.89F WCI  33
STATE COLLEGE  CLOUDY    34  32  93 SW12      29.78F WCI  25
WILLIAMSPORT   CLOUDY    37  29  72 S9        29.82F WCI  30
BINGHAMTON     CLOUDY    33  19  56 S14G29    29.72F WCI  23
NEW YORK CITY  CLOUDY    39  15  37 VRB7      29.99F WCI  34
BALTIMORE      CLOUDY    38  27  64 S5        29.95F WCI  34
WASHINGTON DC  CLOUDY    44  26  49 S14       29.96F

$$



USA.gov is the U.S. government's official web portal to all federal, state and local government web resources and services.